[[{"header":{"parameterUnit":"m.s-1","parameterCategory":1,"la1":30.2991,"la2":30.254,"lo1":-89.0895,"lo2":-89.0444,"dy":0.0017,"dx":0.0017,"nx":28,"ny":28,"refTime":"2025-12-30T03:00:00:Z","depth":0,"parameterNumber":2,"parameterNumberName":"U-component_of_WINDS"},"data":[0,0,0,0,0,0,0,0,0,0,0,0,0,0,0,0,0,0,0,0,0,0,0,0,0,0,0,0,0,0,0,0,0,0,0,0,0,0,0,0,0,0,0,0,0,0,0,0,0,0,0,0,0,0,0,0,0,0,1.2709,1.2708,0,1.2665,1.2665,1.2664,1.2641,1.2641,1.2641,1.2641,1.2593,1.2592,1.2591,0,0,0,0,0,0,0,0,0,0,0,0,0,1.2769,1.2768,1.2709,1.2708,1.2708,1.2665,1.2665,1.2664,1.2641,1.2641,1.2641,1.2641,1.2594,1.2592,1.2591,0,0,0,0,0,0,0,0,0,0,0,0,0,1.2736,1.2768,1.2709,1.2691,1.2689,1.2665,1.2665,1.2664,1.2641,1.2641,1.2641,1.2641,1.2594,1.2592,1.2591,1.2581,0,0,1.2585,1.2584,0,0,0,0,0,0,0,0,1.2738,1.2734,1.2694,1.2692,1.269,1.2658,1.2669,1.2636,1.2641,1.2659,1.2641,1.2641,1.2615,1.2611,1.2603,1.2578,1.2576,1.2585,1.2584,1.2583,1.2582,0,0,0,0,0,0,0,1.274,1.2736,1.2691,1.2693,1.2691,1.2684,1.268,1.2662,1.2638,1.2657,1.2656,1.2651,1.2614,1.2605,1.2602,1.2576,1.2585,1.2583,1.2582,1.2581,1.2541,1.2541,0,0,0,0,0,0,1.2746,1.2738,1.2693,1.269,1.2714,1.2683,1.2678,1.2669,1.2638,1.2633,1.2651,1.265,1.2608,1.2604,1.26,1.2587,1.2583,1.2581,1.258,1.2541,1.2541,1.2541,0,0,0,0,0,0,1.2747,1.2742,1.2694,1.2713,1.2707,1.2682,1.2672,1.2668,1.2659,1.2633,1.2628,1.2647,1.2608,1.2603,1.2586,1.2585,1.258,1.2579,1.2541,1.2541,1.2541,1.256,0,0,0,0,0,0,1.2749,1.2743,1.2739,1.2714,1.2706,1.2682,1.2672,1.2667,1.2656,1.2655,1.2628,1.2623,1.2608,1.2589,1.2584,1.2582,1.2577,1.2541,1.2541,1.2541,1.2559,1.256,1.2561,0,0,0,0,0,1.2751,1.2745,1.2739,1.2734,1.2701,1.2682,1.2677,1.266,1.2656,1.2652,1.2636,1.2624,1.2586,1.2587,1.2582,1.2579,1.2541,1.2541,1.2541,1.2558,1.256,1.2561,0,0,0,0,0,0,1.2769,1.2741,1.2734,1.272,1.2703,1.2678,1.2672,1.2662,1.2645,1.2644,1.2623,1.2617,1.2602,1.2589,1.2591,1.2568,1.2562,1.2561,1.2577,1.2579,1.258,1.2583,1.2576,0,0,0,0,0,1.2772,1.2759,1.2735,1.2725,1.2717,1.2696,1.2687,1.2675,1.2657,1.265,1.2632,1.2614,1.2598,1.2588,1.2571,1.2558,1.2551,1.2553,1.2554,1.2555,1.2554,1.2547,1.2547,1.2542,1.2542,1.2542,0,0,1.2776,1.276,1.2753,1.2728,1.2714,1.2701,1.269,1.2677,1.2666,1.2647,1.2631,1.2617,1.2596,1.2581,1.2573,1.2569,1.2555,1.2556,1.2557,1.2555,1.2547,1.2547,1.2548,1.2542,1.2542,1.2542,0,0,1.2778,1.2764,1.2754,1.2741,1.2721,1.2707,1.2705,1.2681,1.2672,1.2655,1.2641,1.2628,1.2601,1.2587,1.2576,1.2574,1.2563,1.2569,1.2575,1.2568,1.2568,1.2568,1.2568,1.2568,1.2569,1.2569,1.2569,0,1.2786,1.2767,1.275,1.2738,1.2727,1.2711,1.2701,1.2688,1.2663,1.2656,1.2653,1.2619,1.2603,1.2585,1.2585,1.2577,1.2573,1.2572,1.257,1.257,1.257,1.2569,1.2569,1.257,1.257,1.2569,1.2569,0,1.2777,1.2764,1.2758,1.2736,1.2725,1.2714,1.2695,1.2686,1.2676,1.2663,1.2646,1.2627,1.2607,1.2602,1.2591,1.2583,1.2581,1.2574,1.2567,1.2571,1.257,1.257,1.2571,1.2571,1.257,1.257,0,0,1.2788,1.2758,1.2756,1.2746,1.2723,1.2712,1.27,1.2682,1.2675,1.2658,1.2648,1.2626,1.262,1.2608,1.2595,1.2589,1.2589,1.2583,1.2582,1.2584,1.2578,1.2583,1.2583,1.2582,1.2582,1.2582,1.258,0,1.2786,1.2764,1.275,1.2734,1.2722,1.2707,1.2697,1.2681,1.2669,1.2656,1.2642,1.2627,1.262,1.2613,1.2606,1.2591,1.2587,1.2591,1.2571,1.2571,1.2576,1.2582,1.2587,1.2586,1.2579,1.2579,1.2579,0,1.278,1.2766,1.2749,1.2729,1.2723,1.2714,1.2697,1.2685,1.2667,1.2659,1.2646,1.2634,1.2621,1.2617,1.2598,1.26,1.2592,1.2583,1.2583,1.2579,1.2575,1.2579,1.2585,1.2585,1.2578,1.2578,1.2578,0,1.2789,1.2766,1.2753,1.2745,1.2721,1.2715,1.2704,1.2687,1.2677,1.2662,1.2655,1.2638,1.2629,1.2616,1.26,1.2598,1.2583,1.2577,1.2575,1.2575,1.2571,1.2571,1.2575,1.2567,1.2567,1.2567,1.2567,0,1.2788,1.2779,1.2757,1.2749,1.2738,1.2721,1.271,1.2699,1.2683,1.2673,1.2659,1.2649,1.2628,1.2616,1.2603,1.2589,1.2585,1.2577,1.2574,1.2578,1.2579,1.2572,1.2571,1.2567,1.2567,1.2567,1.2567,0,1.2796,1.2781,1.2766,1.2745,1.274,1.2732,1.2714,1.2705,1.2693,1.268,1.2675,1.2656,1.264,1.2623,1.2602,1.2593,1.258,1.2576,1.2587,1.2584,1.2583,1.2583,1.2582,1.2581,1.2574,1.2574,1.2574,0,1.2796,1.2788,1.2767,1.2759,1.275,1.2737,1.2728,1.2712,1.2702,1.2683,1.2677,1.2661,1.2647,1.2623,1.2606,1.259,1.2584,1.2585,1.2582,1.2587,1.2584,1.2584,1.2583,1.2586,1.2586,1.2586,1.2586,0,1.2798,1.2791,1.2778,1.2763,1.2753,1.274,1.2726,1.2721,1.2702,1.2692,1.2677,1.2666,1.2646,1.263,1.2612,1.26,1.259,1.2588,1.2586,1.259,1.2597,1.2593,1.2589,1.2587,1.2587,1.2587,1.2587,1.2587,1.2801,1.2794,1.2778,1.2765,1.2753,1.2741,1.2733,1.272,1.2707,1.269,1.2681,1.2666,1.2649,1.2624,1.2613,1.2601,1.2598,1.2596,1.2595,1.2595,1.2596,1.26,1.2598,1.2598,1.2598,1.2598,1.2598,0,1.2802,1.2791,1.2779,1.2762,1.2751,1.2744,1.2729,1.272,1.2708,1.2694,1.2681,1.2664,1.2649,1.2632,1.2615,1.2609,1.2604,1.2605,1.2605,1.2602,1.26,1.2602,1.261,1.261,1.261,1.261,1.261,1.261,1.2801,1.2788,1.278,1.2762,1.2751,1.2737,1.2729,1.2718,1.2707,1.2689,1.2677,1.2666,1.2651,1.2634,1.262,1.2615,1.261,1.2612,1.2606,1.2604,1.2603,1.2602,1.2604,1.2611,1.2611,1.261,1.261,1.261]},{"header":{"parameterUnit":"m.s-1","parameterCategory":1,"la1":30.2991,"la2":30.254,"lo1":-89.0895,"lo2":-89.0444,"dy":0.0017,"dx":0.0017,"nx":28,"ny":28,"refTime":"2025-12-30T03:00:00:Z","depth":0,"parameterNumber":3,"parameterNumberName":"V-component_of_WINDS"},"data":[0,0,0,0,0,0,0,0,0,0,0,0,0,0,0,0,0,0,0,0,0,0,0,0,0,0,0,0,0,0,0,0,0,0,0,0,0,0,0,0,0,0,0,0,0,0,0,0,0,0,0,0,0,0,0,0,0,0,-7.6546,-7.6548,0,-7.6713,-7.6715,-7.6717,-7.6668,-7.6664,-7.6661,-7.6658,-7.6823,-7.683,-7.6838,0,0,0,0,0,0,0,0,0,0,0,0,0,-7.618,-7.6187,-7.6546,-7.6548,-7.655,-7.6713,-7.6715,-7.6717,-7.6669,-7.6664,-7.666,-7.6656,-7.682,-7.6829,-7.6838,0,0,0,0,0,0,0,0,0,0,0,0,0,-7.6342,-7.6189,-7.6545,-7.6545,-7.6547,-7.6712,-7.6715,-7.6718,-7.6669,-7.6664,-7.6659,-7.6654,-7.6817,-7.6828,-7.684,-7.7013,0,0,-7.6874,-7.6879,0,0,0,0,0,0,0,0,-7.6333,-7.6355,-7.6543,-7.6546,-7.6548,-7.6664,-7.6646,-7.6817,-7.6671,-7.6623,-7.6658,-7.6652,-7.6774,-7.6789,-7.6831,-7.7021,-7.7028,-7.6876,-7.6882,-7.6887,-7.6891,0,0,0,0,0,0,0,-7.6322,-7.6348,-7.6612,-7.6546,-7.6549,-7.6535,-7.6553,-7.6678,-7.6725,-7.6627,-7.6623,-7.6644,-7.6774,-7.682,-7.6834,-7.703,-7.6875,-7.6885,-7.6892,-7.6897,-7.7371,-7.7377,0,0,0,0,0,0,-7.6309,-7.6339,-7.6606,-7.6617,-7.6426,-7.6546,-7.6566,-7.6632,-7.6724,-7.6733,-7.6648,-7.6641,-7.6803,-7.6821,-7.684,-7.705,-7.6887,-7.6898,-7.6904,-7.7365,-7.7372,-7.7379,0,0,0,0,0,0,-7.6302,-7.6334,-7.66,-7.6477,-7.651,-7.6558,-7.6633,-7.6638,-7.6684,-7.674,-7.6748,-7.6687,-7.68,-7.6824,-7.6971,-7.7055,-7.6903,-7.6913,-7.7359,-7.7368,-7.7375,-7.747,0,0,0,0,0,0,-7.6291,-7.6331,-7.6399,-7.6479,-7.6517,-7.673,-7.6638,-7.6645,-7.6705,-7.6697,-7.6779,-7.6787,-7.6798,-7.6954,-7.6982,-7.7068,-7.6922,-7.7351,-7.7363,-7.7373,-7.746,-7.7481,-7.7499,0,0,0,0,0,-7.6279,-7.6417,-7.6403,-7.6435,-7.6602,-7.6735,-7.6756,-7.6767,-7.6712,-7.6779,-7.6815,-7.6784,-7.7041,-7.697,-7.7001,-7.7091,-7.7346,-7.7359,-7.7372,-7.7451,-7.7477,-7.7499,0,0,0,0,0,0,-7.6343,-7.6428,-7.6412,-7.6581,-7.6652,-7.6726,-7.6812,-7.6794,-7.688,-7.6868,-7.6877,-7.6896,-7.7046,-7.7083,-7.7002,-7.7264,-7.7185,-7.7205,-7.7235,-7.726,-7.7279,-7.7267,-7.6932,0,0,0,0,0,-7.6378,-7.648,-7.6547,-7.669,-7.6726,-7.6763,-7.6821,-7.6824,-7.6896,-7.6925,-7.6971,-7.7041,-7.7137,-7.72,-7.7292,-7.7465,-7.7482,-7.7542,-7.7562,-7.7578,-7.7595,-7.7689,-7.7717,-7.7421,-7.7421,-7.7421,0,0,-7.6449,-7.6508,-7.6571,-7.6704,-7.6759,-7.6863,-7.6788,-7.6901,-7.6978,-7.6941,-7.7084,-7.712,-7.7198,-7.7359,-7.7432,-7.7395,-7.768,-7.7594,-7.7606,-7.7615,-7.7706,-7.7734,-7.7758,-7.743,-7.7428,-7.7427,0,0,-7.6632,-7.6687,-7.6813,-7.687,-7.6954,-7.6978,-7.7008,-7.7086,-7.711,-7.7254,-7.7228,-7.7319,-7.7484,-7.7542,-7.7592,-7.7799,-7.7774,-7.7828,-7.7931,-7.8023,-7.8047,-7.8067,-7.8141,-7.8168,-7.7845,-7.7845,-7.7845,0,-7.6709,-7.6867,-7.6879,-7.6995,-7.7055,-7.7028,-7.7155,-7.7208,-7.7318,-7.7359,-7.7315,-7.7524,-7.7574,-7.7748,-7.7799,-7.7841,-7.7875,-7.7819,-7.8043,-7.8064,-7.8083,-7.8154,-7.8182,-7.7851,-7.785,-7.785,-7.7849,0,-7.6959,-7.7069,-7.7159,-7.7269,-7.7338,-7.7459,-7.7487,-7.7556,-7.7553,-7.7581,-7.7727,-7.7787,-7.7891,-7.7932,-7.7929,-7.8107,-7.8081,-7.804,-7.7961,-7.8117,-7.8184,-7.8211,-7.786,-7.7858,-7.7856,-7.7854,0,0,-7.7187,-7.7302,-7.7335,-7.7385,-7.7477,-7.7561,-7.7681,-7.7785,-7.7843,-7.792,-7.8019,-7.8161,-7.8125,-7.8182,-7.8185,-7.8266,-7.8427,-7.8215,-7.8217,-7.8253,-7.8626,-7.8657,-7.8688,-7.8411,-7.8416,-7.842,-7.862,0,-7.7378,-7.7591,-7.7605,-7.7797,-7.7899,-7.7875,-7.7979,-7.8046,-7.8076,-7.8165,-7.8196,-7.8297,-7.8241,-7.8275,-7.8355,-7.8391,-7.8502,-7.8376,-7.8503,-7.8507,-7.8485,-7.8723,-7.8756,-7.8942,-7.8646,-7.865,-7.8654,0,-7.7631,-7.7718,-7.792,-7.7999,-7.8042,-7.8136,-7.8233,-7.8319,-7.8394,-7.8409,-7.8475,-7.8467,-7.8588,-7.8505,-7.8671,-7.8586,-7.8638,-7.8664,-7.8671,-7.8683,-7.859,-7.8742,-7.9001,-7.9029,-7.8695,-7.8691,-7.8688,0,-7.7778,-7.7945,-7.8089,-7.8132,-7.8227,-7.8293,-7.8336,-7.8406,-7.8468,-7.8552,-7.8592,-7.8688,-7.874,-7.8814,-7.8832,-7.877,-7.8998,-7.8917,-7.9014,-7.9014,-7.9064,-7.906,-7.9335,-7.9097,-7.9096,-7.9096,-7.9095,0,-7.7991,-7.8116,-7.8156,-7.8244,-7.8384,-7.8398,-7.8535,-7.8572,-7.8635,-7.8729,-7.8714,-7.8802,-7.882,-7.8911,-7.8925,-7.9061,-7.9085,-7.91,-7.9102,-7.9102,-7.91,-7.9137,-7.9124,-7.9103,-7.9101,-7.91,-7.9099,0,-7.8179,-7.8211,-7.8366,-7.8444,-7.8467,-7.8566,-7.8632,-7.8716,-7.8744,-7.8863,-7.8892,-7.8936,-7.9043,-7.9068,-7.9194,-7.9203,-7.9365,-7.9354,-7.9341,-7.934,-7.9436,-7.9427,-7.9745,-7.9787,-7.952,-7.9523,-7.9525,0,-7.8313,-7.8409,-7.8499,-7.8562,-7.8608,-7.871,-7.8774,-7.8791,-7.8858,-7.8951,-7.9024,-7.913,-7.9215,-7.9387,-7.9428,-7.9525,-7.9517,-7.9622,-7.9531,-7.9528,-7.9519,-7.9514,-7.9524,-7.9639,-7.9642,-7.9644,-7.9646,0,-7.8548,-7.856,-7.8654,-7.8754,-7.8832,-7.8911,-7.8986,-7.9038,-7.9065,-7.9141,-7.9252,-7.9319,-7.9449,-7.9554,-7.9651,-7.9693,-7.9674,-7.9674,-7.9702,-7.9703,-7.9691,-7.97,-7.9388,-7.9667,-7.9665,-7.9663,-7.9662,-7.9661,-7.8714,-7.8799,-7.8876,-7.8981,-7.904,-7.9111,-7.9195,-7.9234,-7.9328,-7.9437,-7.9441,-7.9562,-7.9634,-7.9764,-7.9811,-7.9904,-7.9872,-7.9912,-7.9922,-7.9932,-7.9941,-7.9676,-7.9922,-7.9921,-7.992,-7.992,-7.992,0,-7.8949,-7.8998,-7.9095,-7.9202,-7.9285,-7.9263,-7.9345,-7.9415,-7.9522,-7.9593,-7.9678,-7.9805,-7.9907,-7.9958,-8.0058,-8.0123,-8.0117,-8.0149,-8.0144,-8.0155,-7.9964,-7.993,-8.0152,-8.0152,-8.0152,-8.0152,-8.0152,-8.0152,-7.9081,-7.9224,-7.9245,-7.9416,-7.9463,-7.9584,-7.9633,-7.9698,-7.9754,-7.9898,-7.9984,-8.0017,-8.0079,-8.0184,-8.0276,-8.0288,-8.0326,-8.0363,-8.037,-8.0191,-8.0168,-8.0145,-8.0114,-8.0371,-8.0371,-8.0553,-8.0555,-8.0556]}]]